This demonstration page uses our WeatherBlox Daily Observations layout. Learn more.

Hourly Observations for February 17, 2020

Temp ( °F °C ) Dew Point ( °F °C ) Humidity (%) Winds ( mph kmh ) Pressure ( in mb ) Visibility ( mi km ) Precip ( " mm )
12:54 am 00:54 Cloudy 42 5.6 33 0.6 71 71 W 3 6 29.89 1012 10 16.0934 0 0
1:54 am 01:54 Cloudy 40 4.4 33 0.6 77 77 S 3 6 29.88 1012 10 16.0934 0 0
2:54 am 02:54 Cloudy 39 3.9 33 0.6 79 79 Calm 29.85 1011 10 16.0934 0 0
3:54 am 03:54 Cloudy with Light Rain 41 5 36 2.2 82 82 Calm 29.84 1011 9 14.48406 0.001 0.001
4:54 am 04:54 Cloudy with Light Rain 38 3.3 36 2.2 93 93 Calm 29.83 1010 7 11.26538 0.001 0.001
5:54 am 05:54 Clear with Mist and Fog 39 3.9 36 2.2 89 89 SSE 3 6 29.81 1009 6 9.65604 0.001 0.001
6:54 am 06:54 Clear with Mist and Fog 35 1.7 33 0.6 93 93 SE 6 9 29.81 1010 4 6.43736 0 0
7:54 am 07:54 Partly Cloudy with Mist and Fog 36 2.2 35 1.7 97 97 S 3 6 29.82 1010 6 9.65604 0 0
8:54 am 08:54 Sunny with Mist and Fog 40 4.4 38 3.3 93 93 S 5 7 29.83 1010 6 9.65604 0 0
8:56 am 08:56 Sunny with Mist and Fog 40 4.4 38 3.3 93 93 S 5 7 29.86 1011 4 6.43736 0 0
9:54 am 09:54 Sunny 43 6.1 39 3.9 86 86 S 7 11 29.81 1010 7 11.26538 0 0
10:54 am 10:54 Partly Cloudy 51 10.6 41 5 69 69 SW 15 24 29.79 1009 10 16.0934 0 0
11:54 am 11:54 Mostly Sunny 55 12.8 41 5 59 59 WSW 17 28 29.78 1008 10 16.0934 0 0
12:23 pm 12:23 Cloudy 54 12.2 40 4.4 59 59 W 15 24 29.78 1009 10 16.0934 0 0
12:54 pm 12:54 Cloudy 50 10 39 3.9 66 66 NW 20 31 29.8 1009 10 16.0934 0 0
1:54 pm 13:54 Mostly Sunny 50 10 33 0.6 52 52 NNW 23 37 29.83 1010 10 16.0934 0 0
2:54 pm 14:54 Sunny 45 7.2 30 -1.1 56 56 NNW 23 37 29.87 1012 10 16.0934 0 0
3:54 pm 15:54 Sunny 45 7.2 28 -2.2 52 52 NNW 26 43 29.9 1013 10 16.0934 0 0
4:54 pm 16:54 Sunny 40 4.4 27 -2.8 60 60 NNW 22 35 29.94 1014 10 16.0934 0 0
5:54 pm 17:54 Sunny 35 1.7 26 -3.3 70 70 N 20 31 29.99 1016 10 16.0934 0 0
6:23 pm 18:23 Mostly Cloudy 33 0.6 25 -3.9 72 72 N 16 26 30.05 1017 10 16.0934 0 0
6:54 pm 18:54 Cloudy 34 1.1 25 -3.9 70 70 N 23 37 30.03 1017 10 16.0934 0 0
7:33 pm 19:33 Cloudy 33 0.6 25 -3.9 72 72 N 25 41 30.11 1020 10 16.0934 0 0
7:54 pm 19:54 Cloudy 33 0.6 25 -3.9 72 72 NNW 29 46 30.09 1019 10 16.0934 0 0
8:54 pm 20:54 Cloudy 32 0 24 -4.4 73 73 N 23 37 30.11 1020 10 16.0934 0 0
9:21 pm 21:21 Cloudy 32 0 23 -5 69 69 N 15 24 30.17 1022 10 16.0934 0 0
9:54 pm 21:54 Mostly Cloudy 31 -0.6 22 -5.6 69 69 N 14 22 30.16 1021 10 16.0934 0 0
10:54 pm 22:54 Mostly Cloudy 30 -1.1 21 -6.1 69 69 NNW 14 22 30.18 1022 10 16.0934 0 0
11:43 pm 23:43 Partly Cloudy 28 -2.2 20 -6.7 72 72 NNW 10 17 30.27 1025 10 16.0934 0 0
11:54 pm 23:54 Clear 28 -2.2 20 -6.7 72 72 NNW 12 19 30.23 1024 10 16.0934 0 0

Powered by AerisWeather